This demonstration page uses our WeatherBlox Daily Observations layout. Learn more.

Left ArrowRight Arrow

44.8408, -93.29828

Hourly Observations for February 18, 2022

Temp ( °F °C ) Dew Point ( °F °C ) Humidity (%) Winds ( mph kmh ) Pressure ( in mb ) Visibility ( mi km ) Precip ( " mm )
12:53 am 00:53 Cloudy 2 -16.7 -9 -22.8 59 59 SSE 8 13 30.21 1023 10 16 0.00 0.00
1:53 am 01:53 Cloudy 3 -16.1 -9 -22.8 57 57 SE 12 19 30.15 1021 10 16 0.00 0.00
2:39 am 02:39 Cloudy 4 -15.6 -9 -22.8 54 54 SE 12 19 30.15 1021 10 16 0.00 0.00
2:53 am 02:53 Cloudy 4 -15.6 -9 -22.8 54 54 SSE 13 20 30.11 1020 10 16 0.00 0.00
3:53 am 03:53 Partly Cloudy 4 -15.6 -8 -22.2 57 57 SSE 12 19 30.05 1018 10 16 0.00 0.00
4:53 am 04:53 Partly Cloudy 5 -15 -7 -21.7 57 57 SSE 14 22 30.00 1016 10 16 0.00 0.00
5:53 am 05:53 Partly Cloudy 6 -14.4 -7 -21.7 54 54 S 13 20 29.96 1015 10 16 0.00 0.00
6:53 am 06:53 Cloudy 9 -12.8 -4 -20 55 55 S 12 19 29.93 1013 10 16 0.00 0.00
7:53 am 07:53 Cloudy 12 -11.1 -1 -18.3 56 56 S 15 24 29.87 1012 10 16 0.00 0.00
8:53 am 08:53 Mostly Cloudy 14 -10 1 -17.2 56 56 S 12 19 29.84 1011 10 16 0.00 0.00
9:53 am 09:53 Mostly Cloudy 21 -6.1 7 -13.9 54 54 SSW 10 17 29.78 1009 10 16 0.00 0.00
10:53 am 10:53 Cloudy 26 -3.3 13 -10.6 57 57 SW 15 24 29.75 1007 10 16 0.00 0.00
11:37 am 11:37 Cloudy with Light Snow 30 -1.1 17 -8.3 58 58 WSW 10 17 29.74 1007 4 6 0.00 0.00
11:42 am 11:42 Cloudy with Light Snow 30 -1.1 18 -7.8 61 61 W 13 20 29.75 1007 1 2 0.00 0.00
11:46 am 11:46 Cloudy with Snow 29 -1.7 20 -6.7 69 69 WSW 14 22 29.74 1007 1 1 0.00 0.00
11:53 am 11:53 Cloudy with Light Snow 29 -1.7 22 -5.6 75 75 WSW 10 17 29.73 1007 2 3 0.00 0.00
11:56 am 11:56 Cloudy with Light Snow 29 -1.7 22 -5.6 75 75 WSW 12 19 29.74 1007 7 11 0.00 0.00
12:08 pm 12:08 Cloudy with Light Snow 30 -1.1 23 -5 75 75 SW 13 20 29.73 1007 5 8 0.01 0.25
12:17 pm 12:17 Cloudy with Light Snow 30 -1.1 24 -4.4 79 79 SW 12 19 29.72 1006 9 14 0.01 0.25
12:30 pm 12:30 Cloudy with Light Snow 31 -0.6 26 -3.3 82 82 SW 14 22 29.71 1006 9 14 0.01 0.25
12:53 pm 12:53 Cloudy with Light Snow 34 1.1 28 -2.2 79 79 WSW 13 20 29.68 1005 9 14 0.02 0.51
1:01 pm 13:01 Cloudy 34 1.1 29 -1.7 82 82 WSW 14 22 29.68 1005 9 14 0.00 0.00
1:40 pm 13:40 Cloudy 36 2.2 27 -2.8 70 70 W 25 41 29.67 1005 10 16 0.00 0.00
1:47 pm 13:47 Windy with Snow Likely 36 2 25 -4 65 65 WNW 26 43 29.67 1005 10 16 0.00 0.00
1:53 pm 13:53 Windy with Snow Likely 36 2.2 23 -5 59 59 W 30 48 29.67 1005 9 14 0.00 0.00
1:58 pm 13:58 Cloudy 35 1.7 21 -6.1 57 57 W 31 50 29.66 1004 10 16 0.00 0.00
2:42 pm 14:42 Cloudy 30 -1.1 17 -8.3 58 58 WNW 23 37 29.73 1007 10 16 0.00 0.00
2:53 pm 14:53 Cloudy 28 -2.2 17 -8.3 63 63 WNW 28 44 29.73 1007 10 16 0.00 0.00
3:53 pm 15:53 Cloudy 22 -5.6 7 -13.9 52 52 NW 29 46 29.83 1010 10 16 0.00 0.00
4:53 pm 16:53 Mostly Cloudy 16 -8.9 2 -16.7 54 54 NW 35 56 29.89 1012 10 16 0.00 0.00
5:37 pm 17:37 Cloudy 13 -10.6 0 -17.8 56 56 WNW 29 46 30.01 1016 9 14 0.00 0.00
5:53 pm 17:53 Mostly Cloudy 12 -11.1 -1 -18.3 56 56 WNW 26 43 29.99 1016 10 16 0.00 0.00
6:20 pm 18:20 Mostly Cloudy 10 -12.2 0 -17.8 63 63 WNW 20 31 30.06 1018 10 16 0.00 0.00
6:53 pm 18:53 Mostly Cloudy 9 -12.8 -3 -19.4 58 58 WNW 26 43 30.06 1018 10 16 0.00 0.00
7:05 pm 19:05 Mostly Cloudy 8 -13.3 -3 -19.4 60 60 NW 20 31 30.12 1020 10 16 0.00 0.00
7:53 pm 19:53 Mostly Cloudy 7 -13.9 -5 -20.6 57 57 WNW 23 37 30.12 1020 10 16 0.00 0.00
8:10 pm 20:10 Mostly Cloudy 6 -14.4 -5 -20.6 60 60 WNW 22 35 30.18 1022 10 16 0.00 0.00
8:53 pm 20:53 Mostly Cloudy 5 -15 -5 -20.6 63 63 NW 18 30 30.18 1022 10 16 0.00 0.00
9:53 pm 21:53 Mostly Clear 4 -15.6 -5 -20.6 66 66 NW 15 24 30.21 1023 10 16 0.00 0.00
10:53 pm 22:53 Mostly Clear 4 -15.6 -6 -21.1 63 63 NW 17 28 30.24 1024 10 16 0.00 0.00
11:53 pm 23:53 Clear 3 -16.1 -7 -21.7 62 62 NW 17 28 30.28 1025 10 16 0.00 0.00

Powered by AerisWeather